Time,TemperatureF,DewpointF,PressureIn,WindDirection,WindDirectionDegrees,WindSpeedMPH,WindSpeedGustMPH,Humidity,HourlyPrecipIn,Conditions,Clouds,dailyrainin,SoftwareType,DateUTC
2013-01-24 00:00:00,39.6,28.0,30.08,WNW,293,6.9,7.4,63,0.00,,,0.00,WUHU216HW,2013-01-24 05:00:00,
2013-01-24 00:03:00,39.8,28.2,30.08,West,270,4.5,7.4,63,0.00,,,0.00,WUHU216HW,2013-01-24 05:03:00,
2013-01-24 00:08:00,39.8,28.2,30.08,West,270,3.4,6.9,63,0.00,,,0.00,WUHU216HW,2013-01-24 05:08:00,
2013-01-24 00:13:00,39.8,28.2,30.08,West,270,5.8,5.8,63,0.00,,,0.00,WUHU216HW,2013-01-24 05:13:00,
2013-01-24 00:18:00,39.8,28.2,30.08,WSW,248,4.5,5.8,63,0.00,,,0.00,WUHU216HW,2013-01-24 05:18:00,
2013-01-24 00:23:00,40.0,28.4,30.07,West,270,6.3,7.6,63,0.00,,,0.00,WUHU216HW,2013-01-24 05:23:00,
2013-01-24 00:28:00,39.8,28.2,30.07,NW,315,6.3,7.6,63,0.00,,,0.00,WUHU216HW,2013-01-24 05:28:00,
2013-01-24 00:33:00,40.0,28.4,30.07,West,270,5.6,7.4,63,0.00,,,0.00,WUHU216HW,2013-01-24 05:33:00,
2013-01-24 00:38:00,40.0,28.4,30.07,West,270,5.6,7.4,63,0.00,,,0.00,WUHU216HW,2013-01-24 05:38:00,
2013-01-24 00:43:00,40.1,28.5,30.07,West,270,5.8,6.9,63,0.00,,,0.00,WUHU216HW,2013-01-24 05:43:00,
2013-01-24 00:48:00,40.1,28.5,30.07,West,270,4.0,6.3,63,0.00,,,0.00,WUHU216HW,2013-01-24 05:48:00,
2013-01-24 00:53:00,40.1,28.5,30.07,West,270,5.4,7.4,63,0.00,,,0.00,WUHU216HW,2013-01-24 05:53:00,
2013-01-24 00:58:00,40.3,28.7,30.06,West,270,8.3,8.7,63,0.00,,,0.00,WUHU216HW,2013-01-24 05:58:00,
2013-01-24 01:03:00,40.3,29.1,30.07,WNW,293,6.0,8.7,64,0.00,,,0.00,WUHU216HW,2013-01-24 06:03:00,
2013-01-24 01:08:00,40.3,29.1,30.07,WNW,293,3.6,7.6,64,0.00,,,0.00,WUHU216HW,2013-01-24 06:08:00,
2013-01-24 01:13:00,40.3,29.4,30.07,WNW,293,4.7,7.2,65,0.00,,,0.00,WUHU216HW,2013-01-24 06:13:00,
2013-01-24 01:18:00,40.3,29.1,30.07,NNW,338,5.4,7.6,64,0.00,,,0.00,WUHU216HW,2013-01-24 06:18:00,
2013-01-24 01:23:00,40.3,29.4,30.07,WSW,248,5.8,7.6,65,0.00,,,0.00,WUHU216HW,2013-01-24 06:23:00,
2013-01-24 01:28:00,40.5,29.6,30.07,WNW,293,6.0,8.1,65,0.00,,,0.00,WUHU216HW,2013-01-24 06:28:00,
2013-01-24 01:33:00,40.5,29.6,30.07,WNW,293,3.6,8.1,65,0.00,,,0.00,WUHU216HW,2013-01-24 06:33:00,
2013-01-24 01:38:00,40.5,30.0,30.07,WNW,293,6.9,7.6,66,0.00,,,0.00,WUHU216HW,2013-01-24 06:38:00,
2013-01-24 01:43:00,40.5,30.0,30.07,West,270,6.3,6.9,66,0.00,,,0.00,WUHU216HW,2013-01-24 06:43:00,
2013-01-24 01:48:00,40.5,30.3,30.07,West,270,4.9,6.9,67,0.00,,,0.00,WUHU216HW,2013-01-24 06:48:00,
2013-01-24 01:53:00,40.5,30.3,30.08,NW,315,5.1,6.3,67,0.00,,,0.00,WUHU216HW,2013-01-24 06:53:00,
2013-01-24 01:58:00,40.3,30.2,30.08,WNW,293,6.5,6.5,67,0.00,,,0.00,WUHU216HW,2013-01-24 06:58:00,
2013-01-24 02:03:00,40.3,30.2,30.08,NW,315,5.8,7.6,67,0.00,,,0.00,WUHU216HW,2013-01-24 07:03:00,
2013-01-24 02:08:00,40.3,30.2,30.08,NNW,338,7.2,7.6,67,0.00,,,0.00,WUHU216HW,2013-01-24 07:08:00,
2013-01-24 02:13:00,40.3,30.2,30.08,NNW,338,5.4,7.2,67,0.00,,,0.00,WUHU216HW,2013-01-24 07:13:00,
2013-01-24 02:18:00,40.3,30.2,30.08,NNW,338,4.7,7.2,67,0.00,,,0.00,WUHU216HW,2013-01-24 07:18:00,
2013-01-24 02:23:00,40.3,30.2,30.08,WNW,293,6.5,7.4,67,0.00,,,0.00,WUHU216HW,2013-01-24 07:23:00,
2013-01-24 02:28:00,40.3,30.2,30.08,NNW,338,7.6,7.6,67,0.00,,,0.00,WUHU216HW,2013-01-24 07:28:00,
2013-01-24 02:33:00,40.3,30.2,30.09,WNW,293,3.8,7.6,67,0.00,,,0.00,WUHU216HW,2013-01-24 07:33:00,
2013-01-24 02:38:00,40.1,30.0,30.09,West,270,6.0,7.6,67,0.00,,,0.00,WUHU216HW,2013-01-24 07:38:00,
2013-01-24 02:43:00,40.3,30.6,30.09,WNW,293,3.8,6.3,68,0.00,,,0.00,WUHU216HW,2013-01-24 07:43:00,
2013-01-24 02:48:00,40.1,30.4,30.09,WNW,293,4.7,6.0,68,0.00,,,0.00,WUHU216HW,2013-01-24 07:48:00,
2013-01-24 02:53:00,40.0,30.3,30.09,WNW,293,4.0,6.0,68,0.00,,,0.00,WUHU216HW,2013-01-24 07:53:00,
2013-01-24 02:58:00,39.8,30.1,30.10,NW,315,4.3,6.3,68,0.00,,,0.00,WUHU216HW,2013-01-24 07:58:00,
2013-01-24 03:03:00,39.6,30.3,30.10,West,270,4.7,6.3,69,0.00,,,0.00,WUHU216HW,2013-01-24 08:03:00,
2013-01-24 03:08:00,39.4,30.1,30.10,WNW,293,4.9,5.8,69,0.00,,,0.00,WUHU216HW,2013-01-24 08:08:00,
2013-01-24 03:13:00,39.4,30.1,30.10,WNW,293,5.4,6.3,69,0.00,,,0.00,WUHU216HW,2013-01-24 08:13:00,
2013-01-24 03:18:00,39.2,29.9,30.10,NW,315,5.6,8.1,69,0.00,,,0.00,WUHU216HW,2013-01-24 08:18:00,
2013-01-24 03:23:00,39.4,29.7,30.10,WNW,293,5.1,8.1,68,0.00,,,0.00,WUHU216HW,2013-01-24 08:23:00,
2013-01-24 03:28:00,39.2,29.5,30.10,West,270,5.1,5.8,68,0.00,,,0.00,WUHU216HW,2013-01-24 08:28:00,
2013-01-24 03:33:00,39.1,29.4,30.10,WNW,293,4.5,5.1,68,0.00,,,0.00,WUHU216HW,2013-01-24 08:33:00,
2013-01-24 03:38:00,38.9,29.2,30.11,NW,315,4.5,5.4,68,0.00,,,0.00,WUHU216HW,2013-01-24 08:38:00,
2013-01-24 03:43:00,38.9,29.2,30.11,NW,315,4.7,5.4,68,0.00,,,0.00,WUHU216HW,2013-01-24 08:43:00,
2013-01-24 03:48:00,38.9,28.8,30.11,NW,315,4.0,5.8,67,0.00,,,0.00,WUHU216HW,2013-01-24 08:48:00,
2013-01-24 03:53:00,38.9,28.8,30.11,WNW,293,4.0,7.6,67,0.00,,,0.00,WUHU216HW,2013-01-24 08:53:00,
2013-01-24 03:58:00,38.7,28.6,30.11,NNW,338,3.6,7.6,67,0.00,,,0.00,WUHU216HW,2013-01-24 08:58:00,
2013-01-24 04:03:00,38.5,28.4,30.12,NW,315,4.9,5.8,67,0.00,,,0.00,WUHU216HW,2013-01-24 09:03:00,
2013-01-24 04:08:00,38.3,28.3,30.12,WNW,293,4.0,6.7,67,0.00,,,0.00,WUHU216HW,2013-01-24 09:08:00,
2013-01-24 04:13:00,38.2,27.7,30.12,NW,315,2.9,6.7,66,0.00,,,0.00,WUHU216HW,2013-01-24 09:13:00,
2013-01-24 04:18:00,38.0,27.6,30.13,NNW,338,4.0,6.3,66,0.00,,,0.00,WUHU216HW,2013-01-24 09:18:00,
2013-01-24 04:23:00,37.8,27.5,30.13,NW,315,2.9,6.3,66,0.00,,,0.00,WUHU216HW,2013-01-24 09:23:00,
2013-01-24 04:28:00,37.4,27.1,30.13,NNW,338,3.4,4.7,66,0.00,,,0.00,WUHU216HW,2013-01-24 09:28:00,
2013-01-24 04:33:00,37.3,26.6,30.13,NNW,338,5.4,5.6,65,0.00,,,0.00,WUHU216HW,2013-01-24 09:33:00,
2013-01-24 04:38:00,37.1,26.4,30.13,NNW,338,4.5,5.6,65,0.00,,,0.00,WUHU216HW,2013-01-24 09:38:00,
2013-01-24 04:43:00,36.7,25.7,30.13,NW,315,4.7,6.0,64,0.00,,,0.00,WUHU216HW,2013-01-24 09:43:00,
2013-01-24 04:48:00,36.7,25.7,30.14,NW,315,3.8,6.0,64,0.00,,,0.00,WUHU216HW,2013-01-24 09:48:00,
2013-01-24 04:53:00,36.4,25.4,30.14,NNW,338,3.6,5.4,64,0.00,,,0.00,WUHU216HW,2013-01-24 09:53:00,
2013-01-24 04:58:00,36.4,25.4,30.14,NNW,338,3.1,4.7,64,0.00,,,0.00,WUHU216HW,2013-01-24 09:58:00,
2013-01-24 05:03:00,36.0,25.0,30.14,NNW,338,4.0,5.4,64,0.00,,,0.00,WUHU216HW,2013-01-24 10:03:00,
2013-01-24 05:08:00,35.8,24.9,30.15,NNW,338,3.4,5.4,64,0.00,,,0.00,WUHU216HW,2013-01-24 10:08:00,
2013-01-24 05:13:00,35.6,24.7,30.15,North,0,2.5,4.3,64,0.00,,,0.00,WUHU216HW,2013-01-24 10:13:00,
2013-01-24 05:18:00,35.3,23.9,30.15,NNW,338,4.3,4.3,63,0.00,,,0.00,WUHU216HW,2013-01-24 10:18:00,
2013-01-24 05:23:00,34.9,23.6,30.15,NNW,338,2.5,4.5,63,0.00,,,0.00,WUHU216HW,2013-01-24 10:23:00,
2013-01-24 05:28:00,34.7,23.4,30.16,NNW,338,3.4,4.5,63,0.00,,,0.00,WUHU216HW,2013-01-24 10:28:00,
2013-01-24 05:33:00,34.6,23.2,30.16,NW,315,3.8,4.7,63,0.00,,,0.00,WUHU216HW,2013-01-24 10:33:00,
2013-01-24 05:38:00,34.4,22.7,30.16,NNW,338,3.6,4.7,62,0.00,,,0.00,WUHU216HW,2013-01-24 10:38:00,
2013-01-24 05:43:00,34.2,22.5,30.16,NNW,338,2.9,5.6,62,0.00,,,0.00,WUHU216HW,2013-01-24 10:43:00,
2013-01-24 05:48:00,34.0,22.3,30.16,NNW,338,2.2,5.6,62,0.00,,,0.00,WUHU216HW,2013-01-24 10:48:00,
2013-01-24 05:53:00,33.8,22.1,30.18,NNW,338,2.5,3.6,62,0.00,,,0.00,WUHU216HW,2013-01-24 10:53:00,
2013-01-24 05:58:00,33.5,21.8,30.17,NW,315,3.1,3.4,62,0.00,,,0.00,WUHU216HW,2013-01-24 10:58:00,
2013-01-24 06:03:00,33.5,21.8,30.18,NNW,338,3.1,3.4,62,0.00,,,0.00,WUHU216HW,2013-01-24 11:03:00,
2013-01-24 06:08:00,33.3,21.7,30.18,NNW,338,2.2,3.8,62,0.00,,,0.00,WUHU216HW,2013-01-24 11:08:00,
2013-01-24 06:13:00,33.1,21.5,30.18,North,0,4.7,5.4,62,0.00,,,0.00,WUHU216HW,2013-01-24 11:13:00,
2013-01-24 06:18:00,32.9,21.3,30.18,NW,315,5.4,5.4,62,0.00,,,0.00,WUHU216HW,2013-01-24 11:18:00,
2013-01-24 06:23:00,32.8,19.6,30.18,NNW,338,3.4,5.4,58,0.00,,,0.00,WUHU216HW,2013-01-24 11:23:00,
2013-01-24 06:28:00,32.6,19.5,30.18,NNW,338,4.3,5.4,58,0.00,,,0.00,WUHU216HW,2013-01-24 11:28:00,
2013-01-24 06:33:00,32.4,19.3,30.18,NNW,338,3.4,5.4,58,0.00,,,0.00,WUHU216HW,2013-01-24 11:33:00,
2013-01-24 06:38:00,32.2,19.1,30.19,NNW,338,3.4,5.1,58,0.00,,,0.00,WUHU216HW,2013-01-24 11:38:00,
2013-01-24 06:43:00,32.0,18.6,30.19,NW,315,2.5,4.0,57,0.00,,,0.00,WUHU216HW,2013-01-24 11:43:00,
2013-01-24 06:48:00,32.0,18.9,30.19,NW,315,2.7,4.0,58,0.00,,,0.00,WUHU216HW,2013-01-24 11:48:00,
2013-01-24 06:53:00,31.9,19.2,30.20,WNW,293,1.8,2.7,59,0.00,,,0.00,WUHU216HW,2013-01-24 11:53:00,
2013-01-24 06:58:00,31.7,19.0,30.21,WNW,293,1.3,2.5,59,0.00,,,0.00,WUHU216HW,2013-01-24 11:58:00,
2013-01-24 07:03:00,31.5,18.8,30.22,NNW,338,1.8,2.5,59,0.00,,,0.00,WUHU216HW,2013-01-24 12:03:00,
2013-01-24 07:08:00,31.3,19.1,30.22,NW,315,2.5,3.4,60,0.00,,,0.00,WUHU216HW,2013-01-24 12:08:00,
2013-01-24 07:13:00,31.1,18.9,30.22,NW,315,1.8,3.4,60,0.00,,,0.00,WUHU216HW,2013-01-24 12:13:00,
2013-01-24 07:18:00,31.0,19.1,30.22,NNW,338,1.3,3.1,61,0.00,,,0.00,WUHU216HW,2013-01-24 12:18:00,
2013-01-24 07:23:00,31.0,19.1,30.22,NNW,338,1.8,2.5,61,0.00,,,0.00,WUHU216HW,2013-01-24 12:23:00,
2013-01-24 07:28:00,30.8,18.9,30.23,NW,315,2.9,2.9,61,0.00,,,0.00,WUHU216HW,2013-01-24 12:28:00,
2013-01-24 07:33:00,30.6,19.1,30.23,NW,315,1.6,2.9,62,0.00,,,0.00,WUHU216HW,2013-01-24 12:33:00,
2013-01-24 07:38:00,30.6,19.1,30.23,North,0,1.1,2.9,62,0.00,,,0.00,WUHU216HW,2013-01-24 12:38:00,
2013-01-24 07:43:00,30.6,19.1,30.24,NNW,338,1.3,2.9,62,0.00,,,0.00,WUHU216HW,2013-01-24 12:43:00,
2013-01-24 07:48:00,30.4,18.9,30.24,NNW,338,1.8,2.5,62,0.00,,,0.00,WUHU216HW,2013-01-24 12:48:00,
2013-01-24 07:53:00,30.4,18.9,30.25,North,0,0.7,2.0,62,0.00,,,0.00,WUHU216HW,2013-01-24 12:53:00,
2013-01-24 07:58:00,30.4,18.9,30.25,North,0,1.8,2.0,62,0.00,,,0.00,WUHU216HW,2013-01-24 12:58:00,
2013-01-24 08:03:00,30.4,18.9,30.25,North,0,1.1,2.7,62,0.00,,,0.00,WUHU216HW,2013-01-24 13:03:00,
2013-01-24 08:08:00,30.4,19.3,30.25,NNW,338,2.2,6.3,63,0.00,,,0.00,WUHU216HW,2013-01-24 13:08:00,
2013-01-24 08:13:00,30.2,18.7,30.26,NNW,338,2.5,6.3,62,0.00,,,0.00,WUHU216HW,2013-01-24 13:13:00,
2013-01-24 08:18:00,30.2,19.1,30.26,NNW,338,0.4,4.5,63,0.00,,,0.00,WUHU216HW,2013-01-24 13:18:00,
2013-01-24 08:23:00,30.1,18.9,30.27,North,0,2.2,2.7,63,0.00,,,0.00,WUHU216HW,2013-01-24 13:23:00,
2013-01-24 08:28:00,30.1,18.5,30.27,North,0,2.0,4.7,62,0.00,,,0.00,WUHU216HW,2013-01-24 13:28:00,
2013-01-24 08:33:00,29.9,18.4,30.28,NNW,338,0.9,4.7,62,0.00,,,0.00,WUHU216HW,2013-01-24 13:33:00,
2013-01-24 08:38:00,29.9,18.4,30.28,NNW,338,1.8,3.8,62,0.00,,,0.00,WUHU216HW,2013-01-24 13:38:00,
2013-01-24 08:43:00,29.7,18.3,30.27,NW,315,1.8,4.7,62,0.00,,,0.00,WUHU216HW,2013-01-24 13:43:00,
2013-01-24 08:48:00,29.5,18.1,30.29,NNW,338,2.9,5.4,62,0.00,,,0.00,WUHU216HW,2013-01-24 13:48:00,
2013-01-24 08:53:00,29.5,18.1,30.30,NNE,23,3.1,6.9,62,0.00,,,0.00,WUHU216HW,2013-01-24 13:53:00,
2013-01-24 08:58:00,29.5,18.1,30.29,North,0,1.6,6.9,62,0.00,,,0.00,WUHU216HW,2013-01-24 13:58:00,
2013-01-24 09:03:00,29.5,18.1,30.29,WNW,293,3.1,3.4,62,0.00,,,0.00,WUHU216HW,2013-01-24 14:03:00,
2013-01-24 09:08:00,29.5,18.1,30.30,North,0,1.1,8.5,62,0.00,,,0.00,WUHU216HW,2013-01-24 14:08:00,
2013-01-24 09:13:00,29.5,17.7,30.30,NNW,338,3.1,8.5,61,0.00,,,0.00,WUHU216HW,2013-01-24 14:13:00,
2013-01-24 09:18:00,29.5,17.7,30.31,NNW,338,4.7,4.7,61,0.00,,,0.00,WUHU216HW,2013-01-24 14:18:00,
2013-01-24 09:23:00,29.3,17.2,30.31,NNW,338,2.7,5.6,60,0.00,,,0.00,WUHU216HW,2013-01-24 14:23:00,
2013-01-24 09:28:00,29.2,17.0,30.32,NW,315,2.7,5.6,60,0.00,,,0.00,WUHU216HW,2013-01-24 14:28:00,
2013-01-24 09:33:00,29.2,17.0,30.31,WNW,293,3.6,4.3,60,0.00,,,0.00,WUHU216HW,2013-01-24 14:33:00,
2013-01-24 09:38:00,29.2,17.0,30.32,NW,315,4.3,5.1,60,0.00,,,0.00,WUHU216HW,2013-01-24 14:38:00,
2013-01-24 09:43:00,29.2,17.0,30.33,NW,315,3.1,5.1,60,0.00,,,0.00,WUHU216HW,2013-01-24 14:43:00,
2013-01-24 09:48:00,29.3,17.2,30.32,WNW,293,2.7,4.3,60,0.00,,,0.00,WUHU216HW,2013-01-24 14:48:00,
2013-01-24 09:53:00,29.3,17.2,30.33,NNW,338,4.7,4.7,60,0.00,,,0.00,WUHU216HW,2013-01-24 14:53:00,
2013-01-24 09:58:00,29.3,17.2,30.32,North,0,1.8,4.7,60,0.00,,,0.00,WUHU216HW,2013-01-24 14:58:00,
2013-01-24 10:03:00,29.3,17.2,30.32,NW,315,5.4,5.4,60,0.00,,,0.00,WUHU216HW,2013-01-24 15:03:00,
2013-01-24 10:08:00,29.5,16.9,30.31,NNW,338,2.9,5.4,59,0.00,,,0.00,WUHU216HW,2013-01-24 15:08:00,
2013-01-24 10:13:00,29.3,16.4,30.32,NW,315,3.1,5.4,58,0.00,,,0.00,WUHU216HW,2013-01-24 15:13:00,
2013-01-24 10:18:00,29.3,16.4,30.33,NW,315,0.9,4.3,58,0.00,,,0.00,WUHU216HW,2013-01-24 15:18:00,
2013-01-24 10:23:00,29.5,16.1,30.34,WNW,293,1.1,3.8,57,0.00,,,0.00,WUHU216HW,2013-01-24 15:23:00,
2013-01-24 10:28:00,29.7,16.3,30.34,NW,315,1.6,6.3,57,0.00,,,0.00,WUHU216HW,2013-01-24 15:28:00,
2013-01-24 10:33:00,29.7,15.8,30.33,North,0,3.6,7.4,56,0.00,,,0.00,WUHU216HW,2013-01-24 15:33:00,
2013-01-24 10:38:00,29.9,16.0,30.34,NW,315,2.0,7.4,56,0.00,,,0.00,WUHU216HW,2013-01-24 15:38:00,
2013-01-24 10:43:00,30.2,16.4,30.34,North,0,2.0,4.0,56,0.00,,,0.00,WUHU216HW,2013-01-24 15:43:00,
2013-01-24 10:48:00,30.2,15.9,30.34,North,0,8.3,8.3,55,0.00,,,0.00,WUHU216HW,2013-01-24 15:48:00,
2013-01-24 10:53:00,30.1,15.8,30.34,WNW,293,2.2,8.3,55,0.00,,,0.00,WUHU216HW,2013-01-24 15:53:00,
2013-01-24 10:58:00,30.6,15.8,30.34,NNW,338,1.8,8.3,54,0.00,,,0.00,WUHU216HW,2013-01-24 15:58:00,
2013-01-24 11:03:00,30.8,16.5,30.34,NNW,338,0.4,3.6,55,0.00,,,0.00,WUHU216HW,2013-01-24 16:03:00,
2013-01-24 11:08:00,31.3,16.9,30.35,WNW,293,2.5,4.3,55,0.00,,,0.00,WUHU216HW,2013-01-24 16:08:00,
2013-01-24 11:13:00,31.3,16.1,30.36,NNW,338,1.8,4.3,53,0.00,,,0.00,WUHU216HW,2013-01-24 16:13:00,
2013-01-24 11:18:00,31.3,15.7,30.36,West,270,3.4,4.3,52,0.00,,,0.00,WUHU216HW,2013-01-24 16:18:00,
2013-01-24 11:23:00,31.3,16.1,30.36,North,0,4.5,4.5,53,0.00,,,0.00,WUHU216HW,2013-01-24 16:23:00,
2013-01-24 11:28:00,31.7,16.5,30.36,North,0,3.6,5.4,53,0.00,,,0.00,WUHU216HW,2013-01-24 16:28:00,
2013-01-24 11:33:00,31.9,16.2,30.36,North,0,4.0,5.4,52,0.00,,,0.00,WUHU216HW,2013-01-24 16:33:00,
2013-01-24 11:38:00,31.7,16.0,30.36,North,0,2.5,5.4,52,0.00,,,0.00,WUHU216HW,2013-01-24 16:38:00,
2013-01-24 11:43:00,32.0,16.4,30.36,NNW,338,2.0,5.4,52,0.00,,,0.00,WUHU216HW,2013-01-24 16:43:00,
2013-01-24 11:48:00,32.0,16.7,30.36,North,0,2.0,5.4,53,0.00,,,0.00,WUHU216HW,2013-01-24 16:48:00,
2013-01-24 11:53:00,32.4,16.7,30.36,NNW,338,3.1,8.1,52,0.00,,,0.00,WUHU216HW,2013-01-24 16:53:00,
2013-01-24 11:58:00,32.4,16.2,30.36,North,0,2.9,11.2,51,0.00,,,0.00,WUHU216HW,2013-01-24 16:58:00,
2013-01-24 12:03:00,32.2,15.1,30.36,North,0,3.6,11.2,49,0.00,,,0.00,WUHU216HW,2013-01-24 17:03:00,
2013-01-24 12:08:00,32.2,14.1,30.36,ENE,68,2.7,4.9,47,0.00,,,0.00,WUHU216HW,2013-01-24 17:08:00,
2013-01-24 12:13:00,32.6,14.5,30.36,North,0,8.3,8.3,47,0.00,,,0.00,WUHU216HW,2013-01-24 17:13:00,
2013-01-24 12:18:00,32.2,11.6,30.36,NNE,23,6.5,8.3,42,0.00,,,0.00,WUHU216HW,2013-01-24 17:18:00,
2013-01-24 12:23:00,32.0,12.0,30.36,NNE,23,2.7,8.3,43,0.00,,,0.00,WUHU216HW,2013-01-24 17:23:00,
2013-01-24 12:28:00,32.0,12.0,30.36,North,0,1.1,7.6,43,0.00,,,0.00,WUHU216HW,2013-01-24 17:28:00,
2013-01-24 12:33:00,32.2,12.2,30.36,NNW,338,2.9,7.6,43,0.00,,,0.00,WUHU216HW,2013-01-24 17:33:00,
2013-01-24 12:38:00,32.6,12.4,30.35,NNE,23,2.7,5.4,43,0.00,,,0.00,WUHU216HW,2013-01-24 17:38:00,
2013-01-24 12:43:00,32.8,13.2,30.35,South,180,0.4,5.4,44,0.00,,,0.00,WUHU216HW,2013-01-24 17:43:00,
2013-01-24 12:48:00,32.8,12.1,30.35,NNW,338,1.1,8.5,42,0.00,,,0.00,WUHU216HW,2013-01-24 17:48:00,
2013-01-24 12:53:00,32.8,11.6,30.35,North,0,3.6,8.5,41,0.00,,,0.00,WUHU216HW,2013-01-24 17:53:00,
2013-01-24 12:58:00,32.8,12.1,30.35,WNW,293,2.2,10.7,42,0.00,,,0.00,WUHU216HW,2013-01-24 17:58:00,
2013-01-24 13:03:00,33.3,12.6,30.35,ENE,68,1.8,10.7,42,0.00,,,0.00,WUHU216HW,2013-01-24 18:03:00,
2013-01-24 13:08:00,33.5,12.8,30.35,NW,315,2.7,5.1,42,0.00,,,0.00,WUHU216HW,2013-01-24 18:08:00,
2013-01-24 13:13:00,33.8,13.1,30.35,North,0,1.1,5.1,42,0.00,,,0.00,WUHU216HW,2013-01-24 18:13:00,
2013-01-24 13:18:00,33.8,12.1,30.35,NW,315,2.5,3.4,40,0.00,,,0.00,WUHU216HW,2013-01-24 18:18:00,
2013-01-24 13:23:00,33.8,12.1,30.34,ENE,68,4.3,4.3,40,0.00,,,0.00,WUHU216HW,2013-01-24 18:23:00,
2013-01-24 13:28:00,33.8,12.1,30.34,West,270,2.5,5.4,40,0.00,,,0.00,WUHU216HW,2013-01-24 18:28:00,
2013-01-24 13:33:00,33.7,12.4,30.35,ENE,68,4.7,5.8,41,0.00,,,0.00,WUHU216HW,2013-01-24 18:33:00,
2013-01-24 13:38:00,34.0,12.3,30.34,NNW,338,1.1,6.3,40,0.00,,,0.00,WUHU216HW,2013-01-24 18:38:00,
2013-01-24 13:43:00,34.2,11.8,30.34,WNW,293,2.5,6.3,39,0.00,,,0.00,WUHU216HW,2013-01-24 18:43:00,
2013-01-24 13:48:00,34.4,13.1,30.34,NNW,338,0.9,3.8,41,0.00,,,0.00,WUHU216HW,2013-01-24 18:48:00,
2013-01-24 13:53:00,34.6,13.2,30.34,NE,45,1.1,3.4,41,0.00,,,0.00,WUHU216HW,2013-01-24 18:53:00,
2013-01-24 13:58:00,34.9,13.6,30.33,SE,135,1.1,3.4,41,0.00,,,0.00,WUHU216HW,2013-01-24 18:58:00,
2013-01-24 14:03:00,34.9,14.0,30.34,NE,45,1.1,6.3,42,0.00,,,0.00,WUHU216HW,2013-01-24 19:03:00,
2013-01-24 14:08:00,34.9,13.1,30.34,NNW,338,1.6,6.3,40,0.00,,,0.00,WUHU216HW,2013-01-24 19:08:00,
2013-01-24 14:13:00,34.6,12.7,30.33,NNW,338,0.9,4.0,40,0.00,,,0.00,WUHU216HW,2013-01-24 19:13:00,
2013-01-24 14:18:00,34.7,13.4,30.34,North,0,0.4,5.1,41,0.00,,,0.00,WUHU216HW,2013-01-24 19:18:00,
2013-01-24 14:23:00,34.6,12.7,30.33,NE,45,0.9,5.1,40,0.00,,,0.00,WUHU216HW,2013-01-24 19:23:00,
2013-01-24 14:28:00,34.9,13.6,30.33,NE,45,1.1,4.0,41,0.00,,,0.00,WUHU216HW,2013-01-24 19:28:00,
2013-01-24 14:33:00,35.5,14.6,30.33,ENE,68,4.7,4.7,42,0.00,,,0.00,WUHU216HW,2013-01-24 19:33:00,
2013-01-24 14:38:00,35.8,14.4,30.33,SE,135,0.2,5.4,41,0.00,,,0.00,WUHU216HW,2013-01-24 19:38:00,
2013-01-24 14:43:00,35.6,13.7,30.33,NNW,338,1.6,5.4,40,0.00,,,0.00,WUHU216HW,2013-01-24 19:43:00,
2013-01-24 14:48:00,35.5,13.5,30.34,NNW,338,1.3,4.9,40,0.00,,,0.00,WUHU216HW,2013-01-24 19:48:00,
2013-01-24 14:53:00,35.1,13.2,30.34,WSW,248,1.8,4.9,40,0.00,,,0.00,WUHU216HW,2013-01-24 19:53:00,
2013-01-24 14:58:00,35.1,13.2,30.34,North,0,1.6,3.6,40,0.00,,,0.00,WUHU216HW,2013-01-24 19:58:00,
2013-01-24 15:03:00,35.3,13.3,30.34,East,90,3.1,6.7,40,0.00,,,0.00,WUHU216HW,2013-01-24 20:03:00,
2013-01-24 15:08:00,35.3,13.3,30.34,ENE,68,3.1,6.7,40,0.00,,,0.00,WUHU216HW,2013-01-24 20:08:00,
2013-01-24 15:13:00,35.6,13.7,30.34,East,90,1.1,6.3,40,0.00,,,0.00,WUHU216HW,2013-01-24 20:13:00,
2013-01-24 15:18:00,36.0,13.3,30.35,NW,315,2.7,5.4,39,0.00,,,0.00,WUHU216HW,2013-01-24 20:18:00,
2013-01-24 15:23:00,36.0,13.3,30.34,NE,45,0.4,5.4,39,0.00,,,0.00,WUHU216HW,2013-01-24 20:23:00,
2013-01-24 15:28:00,36.0,13.3,30.34,North,0,1.1,4.5,39,0.00,,,0.00,WUHU216HW,2013-01-24 20:28:00,
2013-01-24 15:33:00,35.8,13.2,30.34,East,90,0.4,4.5,39,0.00,,,0.00,WUHU216HW,2013-01-24 20:33:00,
2013-01-24 15:38:00,36.0,13.3,30.34,NE,45,0.0,4.0,39,0.00,,,0.00,WUHU216HW,2013-01-24 20:38:00,
2013-01-24 15:43:00,36.4,13.7,30.34,North,0,1.1,6.0,39,0.00,,,0.00,WUHU216HW,2013-01-24 20:43:00,
2013-01-24 15:48:00,36.4,13.1,30.35,North,0,0.4,6.0,38,0.00,,,0.00,WUHU216HW,2013-01-24 20:48:00,
2013-01-24 15:53:00,37.1,14.3,30.34,NNW,338,0.9,4.7,39,0.00,,,0.00,WUHU216HW,2013-01-24 20:53:00,
2013-01-24 15:58:00,37.6,14.1,30.34,NE,45,2.5,4.0,38,0.00,,,0.00,WUHU216HW,2013-01-24 20:58:00,
2013-01-24 16:03:00,38.2,14.7,30.34,NE,45,2.5,4.0,38,0.00,,,0.00,WUHU216HW,2013-01-24 21:03:00,
2013-01-24 16:08:00,37.8,13.7,30.35,ENE,68,1.8,3.4,37,0.00,,,0.00,WUHU216HW,2013-01-24 21:08:00,
2013-01-24 16:13:00,37.3,12.5,30.35,NNW,338,1.8,5.6,36,0.00,,,0.00,WUHU216HW,2013-01-24 21:13:00,
2013-01-24 16:18:00,36.5,11.3,30.35,North,0,0.4,5.6,35,0.00,,,0.00,WUHU216HW,2013-01-24 21:18:00,
2013-01-24 16:23:00,36.4,11.7,30.36,North,0,0.9,2.5,36,0.00,,,0.00,WUHU216HW,2013-01-24 21:23:00,
2013-01-24 16:28:00,35.6,11.1,30.36,NE,45,2.5,4.0,36,0.00,,,0.00,WUHU216HW,2013-01-24 21:28:00,
2013-01-24 16:33:00,36.2,12.3,30.35,ENE,68,1.8,4.0,37,0.00,,,0.00,WUHU216HW,2013-01-24 21:33:00,
2013-01-24 16:38:00,36.4,12.4,30.36,NNE,23,0.7,4.5,37,0.00,,,0.00,WUHU216HW,2013-01-24 21:38:00,
2013-01-24 16:44:00,36.2,12.3,30.36,NNW,338,1.1,4.5,37,0.00,,,0.00,WUHU216HW,2013-01-24 21:44:00,
2013-01-24 16:49:00,35.6,11.7,30.35,NNE,23,1.8,3.4,37,0.00,,,0.00,WUHU216HW,2013-01-24 21:49:00,
2013-01-24 16:54:00,35.3,11.4,30.35,NE,45,2.7,3.4,37,0.00,,,0.00,WUHU216HW,2013-01-24 21:54:00,
2013-01-24 16:59:00,34.9,11.1,30.35,North,0,0.4,3.4,37,0.00,,,0.00,WUHU216HW,2013-01-24 21:59:00,
2013-01-24 17:04:00,34.9,11.1,30.36,NW,315,0.2,2.7,37,0.00,,,0.00,WUHU216HW,2013-01-24 22:04:00,
2013-01-24 17:09:00,34.4,10.6,30.36,NNE,23,0.2,2.5,37,0.00,,,0.00,WUHU216HW,2013-01-24 22:09:00,
2013-01-24 17:14:00,34.4,10.6,30.36,North,0,0.7,1.8,37,0.00,,,0.00,WUHU216HW,2013-01-24 22:14:00,
2013-01-24 17:19:00,34.2,10.4,30.36,ENE,68,0.0,1.3,37,0.00,,,0.00,WUHU216HW,2013-01-24 22:19:00,
2013-01-24 17:24:00,34.2,10.4,30.36,NNW,338,0.0,1.8,37,0.00,,,0.00,WUHU216HW,2013-01-24 22:24:00,
2013-01-24 17:29:00,34.2,11.2,30.36,NE,45,0.0,1.8,38,0.00,,,0.00,WUHU216HW,2013-01-24 22:29:00,
2013-01-24 17:34:00,34.4,11.3,30.36,NNE,23,0.4,1.8,38,0.00,,,0.00,WUHU216HW,2013-01-24 22:34:00,
2013-01-24 17:39:00,34.2,11.2,30.36,NE,45,0.9,2.2,38,0.00,,,0.00,WUHU216HW,2013-01-24 22:39:00,
2013-01-24 17:44:00,33.8,10.8,30.36,NE,45,0.9,2.2,38,0.00,,,0.00,WUHU216HW,2013-01-24 22:44:00,
2013-01-24 17:49:00,33.3,10.4,30.36,NE,45,0.4,1.8,38,0.00,,,0.00,WUHU216HW,2013-01-24 22:49:00,
2013-01-24 17:54:00,32.9,10.0,30.36,NNE,23,0.4,1.6,38,0.00,,,0.00,WUHU216HW,2013-01-24 22:54:00,
2013-01-24 17:59:00,32.6,9.6,30.36,NNE,23,0.2,1.1,38,0.00,,,0.00,WUHU216HW,2013-01-24 22:59:00,
2013-01-24 18:04:00,32.2,9.4,30.36,NNE,23,0.0,1.1,38,0.00,,,0.00,WUHU216HW,2013-01-24 23:04:00,
2013-01-24 18:09:00,32.0,8.6,30.36,NNE,23,0.0,0.4,37,0.00,,,0.00,WUHU216HW,2013-01-24 23:09:00,
2013-01-24 18:14:00,31.7,8.2,30.37,NNE,23,0.0,0.4,37,0.00,,,0.00,WUHU216HW,2013-01-24 23:14:00,
2013-01-24 18:19:00,31.3,8.6,30.37,NE,45,0.2,0.9,38,0.00,,,0.00,WUHU216HW,2013-01-24 23:19:00,
2013-01-24 18:24:00,31.1,8.4,30.37,NE,45,1.1,1.1,38,0.00,,,0.00,WUHU216HW,2013-01-24 23:24:00,
2013-01-24 18:29:00,31.0,8.2,30.37,NNE,23,0.4,1.1,38,0.00,,,0.00,WUHU216HW,2013-01-24 23:29:00,
2013-01-24 18:34:00,30.8,8.0,30.37,NNE,23,0.0,1.1,38,0.00,,,0.00,WUHU216HW,2013-01-24 23:34:00,
2013-01-24 18:39:00,30.6,8.6,30.37,NE,45,0.4,1.8,39,0.00,,,0.00,WUHU216HW,2013-01-24 23:39:00,
2013-01-24 18:44:00,30.4,8.4,30.37,NE,45,1.1,1.8,39,0.00,,,0.00,WUHU216HW,2013-01-24 23:44:00,
2013-01-24 18:49:00,30.1,8.0,30.37,NE,45,0.7,1.3,39,0.00,,,0.00,WUHU216HW,2013-01-24 23:49:00,
2013-01-24 18:54:00,30.1,8.0,30.37,NE,45,1.1,1.8,39,0.00,,,0.00,WUHU216HW,2013-01-24 23:54:00,
2013-01-24 18:59:00,29.9,8.5,30.37,NE,45,1.1,1.8,40,0.00,,,0.00,WUHU216HW,2013-01-24 23:59:00,
2013-01-24 19:04:00,29.9,8.5,30.37,NE,45,0.4,1.8,40,0.00,,,0.00,WUHU216HW,2013-01-25 00:04:00,
2013-01-24 19:09:00,29.7,8.4,30.37,NE,45,0.4,1.3,40,0.00,,,0.00,WUHU216HW,2013-01-25 00:09:00,
2013-01-24 19:14:00,29.7,8.4,30.37,NE,45,0.4,1.8,40,0.00,,,0.00,WUHU216HW,2013-01-25 00:14:00,
2013-01-24 19:19:00,29.5,8.6,30.37,NNE,23,0.0,1.8,41,0.00,,,0.00,WUHU216HW,2013-01-25 00:19:00,
2013-01-24 19:24:00,29.3,8.6,30.37,NNE,23,0.7,1.1,41,0.00,,,0.00,WUHU216HW,2013-01-25 00:24:00,
2013-01-24 19:29:00,29.2,8.4,30.37,NE,45,0.0,1.3,41,0.00,,,0.00,WUHU216HW,2013-01-25 00:29:00,
2013-01-24 19:34:00,29.2,8.4,30.37,ESE,113,0.2,1.3,41,0.00,,,0.00,WUHU216HW,2013-01-25 00:34:00,
2013-01-24 19:39:00,29.2,8.4,30.37,East,90,0.0,1.3,41,0.00,,,0.00,WUHU216HW,2013-01-25 00:39:00,
2013-01-24 19:44:00,29.0,8.2,30.37,SSE,158,0.2,1.3,41,0.00,,,0.00,WUHU216HW,2013-01-25 00:44:00,
2013-01-24 19:49:00,28.8,8.0,30.36,ENE,68,0.0,0.4,41,0.00,,,0.00,WUHU216HW,2013-01-25 00:49:00,
2013-01-24 19:54:00,28.6,7.8,30.37,NNE,23,0.4,1.1,41,0.00,,,0.00,WUHU216HW,2013-01-25 00:54:00,
2013-01-24 19:59:00,28.4,7.8,30.37,ESE,113,0.4,2.9,41,0.00,,,0.00,WUHU216HW,2013-01-25 00:59:00,
2013-01-24 20:04:00,28.4,7.8,30.36,NE,45,0.2,2.9,41,0.00,,,0.00,WUHU216HW,2013-01-25 01:04:00,
2013-01-24 20:09:00,28.3,7.6,30.36,North,0,1.3,1.3,41,0.00,,,0.00,WUHU216HW,2013-01-25 01:09:00,
2013-01-24 20:14:00,28.1,7.4,30.36,NNE,23,0.4,2.2,41,0.00,,,0.00,WUHU216HW,2013-01-25 01:14:00,
2013-01-24 20:19:00,27.9,7.2,30.35,SE,135,0.0,2.2,41,0.00,,,0.00,WUHU216HW,2013-01-25 01:19:00,
2013-01-24 20:24:00,27.9,7.2,30.35,WSW,248,0.4,1.1,41,0.00,,,0.00,WUHU216HW,2013-01-25 01:24:00,
2013-01-24 20:29:00,27.7,7.0,30.34,SE,135,0.4,1.1,41,0.00,,,0.00,WUHU216HW,2013-01-25 01:29:00,
2013-01-24 20:34:00,27.4,6.8,30.34,South,180,0.0,1.1,41,0.00,,,0.00,WUHU216HW,2013-01-25 01:34:00,
2013-01-24 20:39:00,27.2,7.0,30.34,ENE,68,0.0,0.7,42,0.00,,,0.00,WUHU216HW,2013-01-25 01:39:00,
2013-01-24 20:44:00,27.0,6.8,30.34,ENE,68,1.1,1.8,42,0.00,,,0.00,WUHU216HW,2013-01-25 01:44:00,
2013-01-24 20:49:00,27.0,6.8,30.34,WSW,248,0.2,1.8,42,0.00,,,0.00,WUHU216HW,2013-01-25 01:49:00,
2013-01-24 20:54:00,27.0,6.8,30.34,ESE,113,0.2,1.8,42,0.00,,,0.00,WUHU216HW,2013-01-25 01:54:00,
2013-01-24 20:59:00,26.8,6.8,30.35,East,90,0.0,1.1,42,0.00,,,0.00,WUHU216HW,2013-01-25 01:59:00,
2013-01-24 21:04:00,26.8,6.8,30.35,NNE,23,0.4,1.3,42,0.00,,,0.00,WUHU216HW,2013-01-25 02:04:00,
2013-01-24 21:09:00,26.6,6.6,30.35,North,0,0.0,1.3,42,0.00,,,0.00,WUHU216HW,2013-01-25 02:09:00,
2013-01-24 21:14:00,26.6,6.6,30.34,SSE,158,0.0,0.7,42,0.00,,,0.00,WUHU216HW,2013-01-25 02:14:00,
2013-01-24 21:19:00,26.5,6.4,30.34,SE,135,0.7,1.3,42,0.00,,,0.00,WUHU216HW,2013-01-25 02:19:00,
2013-01-24 21:24:00,26.5,6.4,30.34,NNE,23,0.0,1.3,42,0.00,,,0.00,WUHU216HW,2013-01-25 02:24:00,
2013-01-24 21:29:00,26.3,6.8,30.34,ESE,113,0.4,1.3,43,0.00,,,0.00,WUHU216HW,2013-01-25 02:29:00,
2013-01-24 21:34:00,26.3,6.8,30.34,NNE,23,0.0,1.3,43,0.00,,,0.00,WUHU216HW,2013-01-25 02:34:00,
2013-01-24 21:39:00,26.1,6.6,30.34,East,90,0.4,1.3,43,0.00,,,0.00,WUHU216HW,2013-01-25 02:39:00,
2013-01-24 21:44:00,26.1,7.0,30.34,NE,45,0.7,1.8,44,0.00,,,0.00,WUHU216HW,2013-01-25 02:44:00,
2013-01-24 21:49:00,26.1,7.0,30.34,NE,45,0.4,1.8,44,0.00,,,0.00,WUHU216HW,2013-01-25 02:49:00,
2013-01-24 21:54:00,25.9,6.8,30.34,WNW,293,0.0,1.8,44,0.00,,,0.00,WUHU216HW,2013-01-25 02:54:00,
2013-01-24 21:59:00,25.7,6.8,30.34,SE,135,0.0,1.8,44,0.00,,,0.00,WUHU216HW,2013-01-25 02:59:00,
2013-01-24 22:04:00,25.6,7.0,30.34,WSW,248,0.0,0.4,45,0.00,,,0.00,WUHU216HW,2013-01-25 03:04:00,
2013-01-24 22:09:00,25.6,7.0,30.33,ESE,113,0.2,1.1,45,0.00,,,0.00,WUHU216HW,2013-01-25 03:09:00,
2013-01-24 22:14:00,25.4,6.8,30.34,NNE,23,0.0,2.5,45,0.00,,,0.00,WUHU216HW,2013-01-25 03:14:00,
2013-01-24 22:19:00,25.4,6.8,30.33,NE,45,2.2,2.5,45,0.00,,,0.00,WUHU216HW,2013-01-25 03:19:00,
2013-01-24 22:24:00,25.2,6.8,30.33,ENE,68,0.7,2.2,45,0.00,,,0.00,WUHU216HW,2013-01-25 03:24:00,
2013-01-24 22:29:00,25.2,6.8,30.33,East,90,0.4,2.5,45,0.00,,,0.00,WUHU216HW,2013-01-25 03:29:00,
2013-01-24 22:34:00,25.0,6.6,30.33,SSW,203,0.0,2.5,45,0.00,,,0.00,WUHU216HW,2013-01-25 03:34:00,
2013-01-24 22:39:00,24.8,6.4,30.32,SSE,158,0.2,1.3,45,0.00,,,0.00,WUHU216HW,2013-01-25 03:39:00,
2013-01-24 22:44:00,24.8,6.8,30.32,SSW,203,0.4,1.3,46,0.00,,,0.00,WUHU216HW,2013-01-25 03:44:00,
2013-01-24 22:49:00,24.8,6.8,30.32,South,180,0.2,1.3,46,0.00,,,0.00,WUHU216HW,2013-01-25 03:49:00,
2013-01-24 22:54:00,24.5,6.6,30.32,SSE,158,0.0,3.1,46,0.00,,,0.00,WUHU216HW,2013-01-25 03:54:00,
2013-01-24 22:59:00,24.5,6.6,30.31,SE,135,0.2,3.1,46,0.00,,,0.00,WUHU216HW,2013-01-25 03:59:00,
2013-01-24 23:04:00,24.5,6.6,30.31,SE,135,0.2,1.1,46,0.00,,,0.00,WUHU216HW,2013-01-25 04:04:00,
2013-01-24 23:09:00,24.5,6.6,30.31,South,180,0.2,0.9,46,0.00,,,0.00,WUHU216HW,2013-01-25 04:09:00,
2013-01-24 23:14:00,24.3,6.4,30.31,North,0,0.2,1.8,46,0.00,,,0.00,WUHU216HW,2013-01-25 04:14:00,
2013-01-24 23:19:00,24.3,6.4,30.31,North,0,0.0,2.5,46,0.00,,,0.00,WUHU216HW,2013-01-25 04:19:00,
2013-01-24 23:24:00,24.3,6.4,30.31,ESE,113,0.4,2.5,46,0.00,,,0.00,WUHU216HW,2013-01-25 04:24:00,
2013-01-24 23:29:00,24.3,6.4,30.31,NNW,338,0.0,1.8,46,0.00,,,0.00,WUHU216HW,2013-01-25 04:29:00,
2013-01-24 23:34:00,24.1,6.2,30.32,SSE,158,0.7,1.3,46,0.00,,,0.00,WUHU216HW,2013-01-25 04:34:00,
2013-01-24 23:39:00,24.1,6.2,30.33,NE,45,0.0,1.3,46,0.00,,,0.00,WUHU216HW,2013-01-25 04:39:00,
2013-01-24 23:44:00,24.1,6.2,30.32,NE,45,1.8,1.8,46,0.00,,,0.00,WUHU216HW,2013-01-25 04:44:00,
2013-01-24 23:49:00,24.1,6.2,30.32,East,90,0.0,1.8,46,0.00,,,0.00,WUHU216HW,2013-01-25 04:49:00,
2013-01-24 23:54:00,24.1,6.8,30.32,East,90,0.4,1.8,47,0.00,,,0.00,WUHU216HW,2013-01-25 04:54:00,
2013-01-24 23:59:00,24.1,6.8,30.31,ESE,113,0.0,1.6,47,0.00,,,0.00,WUHU216HW,2013-01-25 04:59:00,